Location: Bamobli
(6.6379°N, 10.9396°W)
Time: 21:29:42
(UTC+00:00)

Envisat - Pass Details

Date: 07 March 2021
Orbit: 764 x 766 km, 98.1° (Epoch: 16 April)

Event Time Altitude Azimuth Distance (km) Brightness Sun altitude
Rises 06:00:17 0° 12° (NNE) 3,216 6.3 -14.1°
Reaches altitude 10° 06:02:34 10° 13° (NNE) 2,291 5.6 -13.5°
Maximum altitude 06:07:38 87° 100° (E) 768 3.0 -12.3°
Drops below altitude 10° 06:12:42 10° 191° (S) 2,295 5.4 -11.0°
Sets 06:15:00 0° 191° (SSW) 3,221 6.2 -10.4°
